FENGYUN 1C DEB

Satellite information

Favourite Embed

Satellite Type and Status

DEBRISIN ORBIT

Key statistics

Satellite FENGYUN 1C DEB at a glance.

Uptime

9495

Days in orbit

Revolutions

≈ 14.7

Per day

Orbit

SSO

Sun Synchronous Orbit

Inclination

99.0

Latest

Satellite identification and parameters

Extended collection of information and parameters for FENGYUN 1C DEB.

Object identification

Identified? True

Debris? True

Object name: FENGYUN 1C DEB

International designator: 1999-025AQU

Object number (NORAD): 30686

Object ID (CCSDS): 30686

Country: PEOPLES REPUBLIC OF CHINA (PRC)

Current information (Y/N): Y

RCS size: SMALL

Orbital parameters

Period: 97.895 minutes

Inclination: 99.0336 deg

SMA: 7036.122 km

Apoapsis: 764.58 km

Periapsis: 551.393 km

RAAN: 297.324 deg

Eccentricy: 0.0151495

Argument of periapsis: 81.0558 deg

Mean anomaly: 39.2012 deg

Mean motion: 14.70966384 rev/day

Mean motion (dot): 0.00006928 rev/day2

B* drag term: 0.00095341 1/REarth

Two-line elements (TLE)

Creation date: May 8, 2025, 3:01 a.m.

Reference frame: TEME

Reference center: EARTH

Epoch: May 7, 2025, 5:41 p.m. UTC

TLE line 0: 0 FENGYUN 1C DEB

TLE line 1: 1 30686U 99025AQU 25127.73715382 .00006928 00000-0 95341-3 0 9991

TLE line 2: 2 30686 99.0336 297.3240 0151495 81.0558 39.2012 14.70966384963793

Live tracking on map

Real-time ground track for satellite FENGYUN 1C DEB.

In-orbit conjunctions

A list of the most updated potential collisions computed for object FENGYUN 1C DEB.

Target Orbit TCA Probability of collision Miss distance Type
GP-B LEO 2025-04-05 23:40:12 0.0001081096 820.0 (m) PAYLOAD
CZ-2C R/B SSO 2025-03-04 05:02:45 0.0001129989 469.0 (m) ROCKET BODY

Associated space launch

Chinese polar orbiting meteorological satellite

FENGYUN 1C DEB was lifted into orbit during the mission ‘Long March 4B | Feng Yun 1C’, on board a Long March 4B space rocket.

The launch took place on May 10, 1999, 1:33 a.m. from Launch Complex 7.

For more information about the launch, click the button.

Launch to space Long March 4B | Feng Yun 1C
Long March 4B | Feng Yun 1C

Agency: N/A

Status: Launch Successful

Launch date: May 10, 1999, 1:33 a.m. UTC

Rocket: Long March 4B

Launch pad: Launch Complex 7

Location: Taiyuan Satellite Launch Center, People's Republic of China

...

Latest news about this satellite

There are no fresh news available about this satellite. Check back as we update our databases every day.


Newsletter sign-up

Weekly statistics, charts and insights to help you stay on top of the space industry.